FORMOSAT-5

Last updated on Mon Sep 07 2026 00:02:46 GMT+0000 (Coordinated Universal Time)

1 42920U 17049A 26249.63632597 .00000032 00000+0 19209-4 0 9991 2 42920 98.2197 323.1131 0011306 186.5891 173.5157 14.50905807478487
UTC large
Height (km)
Speed (km/s)
/
Latitude / Longitude
Inclination (degrees)
Orbital Period (minutes)
Azimuth
Elevation
Range (km)
Doppler Factor

Next 0 passes for location: London (51.5072 / 0.1276)

No passes found over London.
FORMOSAT-5